Date String (YYYY-MM-DD hh:mm:ss) UTC,Instrument flags,absolute air pressure of the measurement (hPa),sample flow rate (lpm),inlet stack bypass flow (lpm),air temperature of the measurement (°C),ambient temperature measured by the external sensor (°C),aerosol sample conditioner tube jacket temperature (°C),OPC LED temperature (°C),internal box temperature (°C),relative humidity of the measurement (%),span deviation,mass concentration of particles derived from Lorenz-Mie calculation of OPC scattering (μg/m³),mass concentration of particles derived from Lorenz-Mie calculation of OPC scattering (μg/m³),mass concentration of particles derived from Lorenz-Mie calculation of OPC scattering (μg/m³)
DateTimeUTC,F1_M11,P_M11,Q1_M11,Q2_M11,T1_M11,T2_M11,T3_M11,T4_M11,T5_M11,U1_M11,ZSPAN_M11,X2_M11,X0_M11,X1_M11
2023-09-14 21:00:00,SystemResetWarning,0832.8,5.00,000.00,027.8,026.3,000.0,036.2,029.5,30.1,0000.0,0004.60,0011.06,0003.95
2023-09-14 21:01:00,SystemResetWarning,0832.8,4.99,000.00,027.9,026.5,000.0,036.2,029.6,30.0,0000.0,0004.60,0011.41,0003.95
2023-09-14 21:02:00,SystemResetWarning,0832.8,5.01,000.00,027.9,026.7,000.0,036.2,029.6,30.4,0000.0,0004.60,0012.38,0003.94
2023-09-14 21:03:00,SystemResetWarning,0832.9,5.01,000.00,027.9,026.8,000.0,036.3,029.7,30.5,0000.0,0004.60,0012.78,0003.93
2023-09-14 21:04:00,SystemResetWarning,0832.8,5.00,000.00,028.0,026.9,000.0,036.3,029.7,30.2,0000.0,0004.59,0012.49,0003.94
2023-09-14 21:05:00,SystemResetWarning,0832.8,4.99,000.00,028.0,027.0,000.0,036.3,029.8,29.8,0000.0,0004.58,0012.30,0003.93
2023-09-14 21:06:00,SystemResetWarning,0833.0,4.99,000.00,028.1,027.1,000.0,036.3,029.8,29.5,0000.0,0004.60,0012.81,0003.93
2023-09-14 21:07:00,SystemResetWarning,0833.2,5.00,000.00,028.1,027.2,000.0,036.4,029.9,29.7,0000.0,0004.61,0013.14,0003.93
2023-09-14 21:08:00,SystemResetWarning,0833.2,5.00,000.00,028.2,027.2,000.0,036.4,029.9,30.1,0000.0,0004.58,0012.24,0003.92
2023-09-14 21:09:00,SystemResetWarning,0833.3,5.00,000.00,028.2,027.3,000.0,036.4,030.0,30.4,0000.0,0004.58,0012.47,0003.92
2023-09-14 21:10:00,SystemResetWarning,0833.3,5.00,000.00,028.3,027.4,000.0,036.4,030.1,30.1,0000.0,0004.58,0012.73,0003.91
2023-09-14 21:11:00,SystemResetWarning,0833.2,5.00,000.00,028.3,027.3,000.0,036.5,030.1,30.0,0000.0,0004.53,0012.61,0003.90
2023-09-14 21:12:00,SystemResetWarning,0833.2,4.99,000.00,028.3,026.1,000.0,036.4,029.7,29.9,0000.0,0004.50,0012.52,0003.89
2023-09-14 21:13:00,SystemResetWarning,0832.8,5.01,000.00,028.2,024.8,000.0,036.4,029.4,30.5,0000.0,0004.48,0011.84,0003.88
2023-09-14 21:14:00,SystemResetWarning,0832.7,5.01,000.00,028.1,024.5,000.0,036.4,029.3,31.0,-000.8,0004.47,0011.47,0003.88
2023-09-14 21:15:00,SystemResetWarning,0832.8,5.00,000.00,028.0,024.7,000.0,036.4,029.3,31.4,0000.0,0004.45,0011.83,0003.87
2023-09-14 21:16:00,SystemResetWarning,0832.8,4.99,000.00,027.9,025.1,000.0,036.4,029.3,31.6,0000.0,0004.43,0011.67,0003.86
2023-09-14 21:17:00,SystemResetWarning,0832.8,5.00,000.00,027.9,025.4,000.0,036.4,029.4,31.6,0000.0,0004.42,0011.27,0003.87
2023-09-14 21:18:00,SystemResetWarning,0833.0,5.00,000.00,027.9,025.7,000.0,036.4,029.5,31.4,0000.0,0004.41,0011.06,0003.87
2023-09-14 21:19:00,SystemResetWarning,0833.3,5.01,000.00,028.0,026.0,000.0,036.4,029.6,31.7,0000.0,0004.39,0012.06,0003.87
2023-09-14 21:20:00,SystemResetWarning,0833.1,5.00,000.00,028.0,026.3,000.0,036.4,029.6,32.2,0000.0,0004.41,0011.79,0003.87
2023-09-14 21:21:00,SystemResetWarning,0833.3,4.99,000.00,028.0,026.5,000.0,036.4,029.7,31.8,0000.0,0004.42,0011.04,0003.87
2023-09-14 21:22:00,SystemResetWarning,0833.3,5.00,000.00,028.1,026.7,000.0,036.4,029.7,31.6,0000.0,0004.48,0011.34,0003.87
2023-09-14 21:23:00,SystemResetWarning,0833.2,4.99,000.00,028.1,026.8,000.0,036.4,029.8,31.9,0000.0,0004.47,0011.26,0003.88
2023-09-14 21:24:00,SystemResetWarning,0833.3,4.99,000.00,028.1,026.9,000.0,036.4,029.8,32.7,0000.0,0004.46,0011.06,0003.88
2023-09-14 21:25:00,SystemResetWarning,0833.4,5.00,000.00,028.2,027.0,000.0,036.4,029.9,32.5,0000.0,0004.44,0011.21,0003.88
2023-09-14 21:26:00,SystemResetWarning,0832.9,5.01,000.00,028.2,027.1,000.0,036.5,029.9,32.3,0000.0,0004.46,0012.26,0003.88
2023-09-14 21:27:00,SystemResetWarning,0833.1,5.01,000.00,028.3,027.2,000.0,036.5,030.0,32.6,0000.0,0004.52,0012.76,0003.89
2023-09-14 21:28:00,SystemResetWarning,0832.9,5.00,000.00,028.3,027.3,000.0,036.5,030.0,32.5,0000.0,0004.54,0012.86,0003.89
2023-09-14 21:29:00,SystemResetWarning,0832.9,5.00,000.00,028.3,027.4,000.0,036.5,030.1,32.1,0000.0,0004.59,0012.89,0003.91
2023-09-14 21:30:00,SystemResetWarning,0833.0,4.99,000.00,028.4,027.2,000.0,036.5,030.1,32.3,0000.0,0004.65,0012.40,0003.92
2023-09-14 21:31:00,SystemResetWarning,0832.9,4.99,000.00,028.3,025.5,000.0,036.5,029.7,32.4,0000.0,0004.65,0011.60,0003.92
2023-09-14 21:32:00,SystemResetWarning,0833.0,5.01,000.00,028.2,024.6,000.0,036.4,029.5,32.7,0000.0,0004.64,0011.41,0003.92
2023-09-14 21:33:00,SystemResetWarning,0833.0,5.02,000.00,028.1,024.5,000.0,036.4,029.4,32.7,0000.0,0004.57,0010.99,0003.92
2023-09-14 21:34:00,SystemResetWarning,0833.0,4.99,000.00,028.0,024.8,000.0,036.4,029.3,33.6,0000.0,0004.57,0011.09,0003.93
2023-09-14 21:35:00,SystemResetWarning,0833.0,4.99,000.00,028.0,025.2,000.0,036.4,029.4,33.8,0000.0,0004.57,0012.18,0003.94
2023-09-14 21:36:00,SystemResetWarning,0833.3,5.00,000.00,028.0,025.5,000.0,036.4,029.4,33.9,0000.0,0004.62,0012.44,0003.95
2023-09-14 21:37:00,SystemResetWarning,0833.1,5.00,000.00,028.0,025.8,000.0,036.4,029.5,33.6,0000.0,0004.65,0011.26,0003.98
2023-09-14 21:38:00,SystemResetWarning,0833.0,5.00,000.00,028.0,026.1,000.0,036.4,029.6,34.1,0000.0,0004.68,0010.24,0003.99
2023-09-14 21:39:00,SystemResetWarning,0833.0,4.99,000.00,028.0,026.3,000.0,036.4,029.6,34.1,0000.0,0004.70,0011.23,0004.01
2023-09-14 21:40:00,SystemResetWarning,0833.3,4.99,000.00,028.1,026.6,000.0,036.4,029.7,33.9,0000.0,0004.73,0012.19,0004.01
2023-09-14 21:41:00,SystemResetWarning,0833.1,5.02,000.00,028.1,026.7,000.0,036.4,029.8,34.3,0000.0,0004.70,0012.43,0004.02
2023-09-14 21:42:00,SystemResetWarning,0833.3,5.00,000.00,028.2,026.9,000.0,036.5,029.8,34.5,0000.0,0004.73,0011.93,0004.02
2023-09-14 21:43:00,SystemResetWarning,0833.2,5.00,000.00,028.2,027.0,000.0,036.5,029.9,34.1,0000.0,0004.73,0011.89,0004.04
2023-09-14 21:44:00,SystemResetWarning,0833.0,5.00,000.00,028.2,027.1,000.0,036.5,029.9,33.8,0000.0,0004.73,0012.14,0004.04
2023-09-14 21:45:00,SystemResetWarning,0833.0,4.99,000.00,028.3,027.2,000.0,036.5,030.0,33.4,0000.0,0004.74,0012.34,0004.04
2023-09-14 21:46:00,SystemResetWarning,0833.0,5.00,000.00,028.3,027.3,000.0,036.5,030.0,33.3,0000.0,0004.80,0011.95,0004.05
2023-09-14 21:47:00,SystemResetWarning,0833.1,5.00,000.00,028.3,027.4,000.0,036.6,030.1,33.6,0000.0,0004.82,0011.73,0004.04
2023-09-14 21:48:00,SystemResetWarning,0833.1,4.98,000.00,028.4,026.7,000.0,036.5,029.9,33.4,0000.0,0004.83,0012.61,0004.04
2023-09-14 21:49:00,SystemResetWarning,0833.2,5.01,000.00,028.2,025.1,000.0,036.5,029.5,33.5,0000.0,0004.82,0013.15,0004.04
2023-09-14 21:50:00,SystemResetWarning,0833.1,5.01,000.00,028.1,024.5,000.0,036.4,029.4,33.8,0000.0,0004.80,0012.93,0004.03
2023-09-14 21:51:00,SystemResetWarning,0833.1,5.00,000.00,028.0,024.7,000.0,036.4,029.3,33.9,0000.0,0004.76,0012.00,0004.03
2023-09-14 21:52:00,SystemResetWarning,0833.0,5.00,000.00,028.0,025.0,000.0,036.4,029.3,34.2,0000.0,0004.74,0012.39,0004.03
2023-09-14 21:53:00,SystemResetWarning,0833.1,5.00,000.00,028.0,025.3,000.0,036.4,029.4,34.0,0000.0,0004.73,0012.84,0004.03
2023-09-14 21:54:00,SystemResetWarning,0833.1,4.99,000.00,028.0,025.6,000.0,036.4,029.5,34.2,0000.0,0004.74,0014.26,0004.02
2023-09-14 21:55:00,SystemResetWarning,0833.1,5.00,000.00,028.0,025.9,000.0,036.4,029.6,33.5,0000.0,0004.76,0014.65,0004.03
2023-09-14 21:56:00,SystemResetWarning,0833.1,5.00,000.00,028.0,026.2,000.0,036.4,029.6,33.0,0000.0,0004.79,0015.10,0004.03
2023-09-14 21:57:00,SystemResetWarning,0833.0,5.00,000.00,028.0,026.4,000.0,036.4,029.7,33.0,0000.0,0004.80,0014.81,0004.02
2023-09-14 21:58:00,SystemResetWarning,0833.1,5.00,000.00,028.1,026.6,000.0,036.4,029.8,32.5,0000.0,0004.81,0014.79,0004.03
2023-09-14 21:59:00,SystemResetWarning,0833.1,4.99,000.00,028.1,026.7,000.0,036.4,029.8,32.3,0000.0,0004.81,0014.60,0004.02
